When you browse on this site, cookies collect data to enhance your experience and personalize the content and advertising you see.
Visit our Privacy Policy to learn more. By continuing to use the site, you agree to this use of cookies and data.
  • In Czech Republic
  • List of Countries
  • For 7 days
  • Water Temperature
  • Satellite Maps
  • Weather Map
  • Weather Widgets
  • user-avatar
    Login

    Hourly Weather Basse Santa Su

    Today, 16 December, Sunday

    Time Temperature Precipitation Wind Pressure Humidity
    00:00 +30°C° 0 mm 4 mps 760 mmHg 10%
    01:00 +29°C° 0 mm 4 mps 760 mmHg 11%
    02:00 +29°C° 0 mm 4 mps 760 mmHg 11%
    03:00 +28°C° 0 mm 4 mps 760 mmHg 11%
    04:00 +28°C° 0 mm 3 mps 760 mmHg 11%
    05:00 +27°C° 0 mm 3 mps 760 mmHg 11%
    06:00 +28°C° 0 mm 4 mps 760 mmHg 11%
    07:00 +29°C° 0 mm 4 mps 761 mmHg 10%
    08:00 +30°C° 0 mm 5 mps 761 mmHg 9%
    09:00 +33°C° 0 mm 5 mps 761 mmHg 8%
    10:00 +35°C° 0 mm 5 mps 760 mmHg 7%
    11:00 +39°C° 0 mm 5 mps 760 mmHg 6%
    12:00 +39°C° 0 mm 5 mps 759 mmHg 6%
    13:00 +40°C° 0 mm 5 mps 759 mmHg 6%
    14:00 +41°C° 0 mm 5 mps 758 mmHg 6%
    15:00 +40°C° 0 mm 4 mps 758 mmHg 6%
    16:00 +38°C° 0 mm 3 mps 758 mmHg 6%
    17:00 +37°C° 0 mm 3 mps 758 mmHg 6%
    18:00 +35°C° 0 mm 2 mps 758 mmHg 6%
    19:00 +32°C° 0 mm 2 mps 759 mmHg 7%
    20:00 +30°C° 0 mm 2 mps 759 mmHg 7%
    21:00 +29°C° 0 mm 2 mps 760 mmHg 7%
    22:00 +29°C° 0 mm 2 mps 760 mmHg 7%
    23:00 +28°C° 0 mm 2 mps 760 mmHg 7%

    Tomorrow, 17 December, Monday

    Time Temperature Precipitation Wind Pressure Humidity
    00:00 +27°C° 0 mm 2 mps 759 mmHg 7%
    01:00 +27°C° 0 mm 2 mps 759 mmHg 8%
    02:00 +26°C° 0 mm 2 mps 759 mmHg 8%
    03:00 +26°C° 0 mm 2 mps 759 mmHg 8%
    04:00 +25°C° 0 mm 2 mps 759 mmHg 8%
    05:00 +25°C° 0 mm 2 mps 758 mmHg 9%
    06:00 +26°C° 0 mm 2 mps 759 mmHg 8%
    07:00 +27°C° 0 mm 3 mps 759 mmHg 8%
    08:00 +28°C° 0 mm 3 mps 760 mmHg 8%
    09:00 +31°C° 0 mm 3 mps 759 mmHg 7%
    10:00 +35°C° 0 mm 3 mps 759 mmHg 6%
    11:00 +38°C° 0 mm 3 mps 759 mmHg 5%
    12:00 +39°C° 0 mm 3 mps 758 mmHg 5%
    13:00 +40°C° 0 mm 2 mps 757 mmHg 5%
    14:00 +41°C° 0 mm 2 mps 756 mmHg 5%
    15:00 +40°C° 0 mm 2 mps 756 mmHg 5%
    16:00 +39°C° 0 mm 2 mps 756 mmHg 6%
    17:00 +38°C° 0 mm 2 mps 756 mmHg 6%
    18:00 +36°C° 0 mm 2 mps 756 mmHg 7%
    19:00 +34°C° 0 mm 2 mps 757 mmHg 8%
    20:00 +31°C° 0 mm 2 mps 758 mmHg 8%
    21:00 +30°C° 0 mm 2 mps 758 mmHg 8%
    22:00 +29°C° 0 mm 2 mps 758 mmHg 9%
    23:00 +29°C° 0 mm 2 mps 758 mmHg 9%

    Day after tomorrow, 18 December, Tuesday

    Time Temperature Precipitation Wind Pressure Humidity
    00:00 +28°C° 0 mm 2 mps 758 mmHg 10%
    01:00 +27°C° 0 mm 1 mps 758 mmHg 10%
    02:00 +26°C° 0 mm 1 mps 758 mmHg 11%
    03:00 +25°C° 0 mm 1 mps 758 mmHg 12%
    04:00 +24°C° 0 mm 1 mps 758 mmHg 12%
    05:00 +22°C° 0 mm 0 mps 758 mmHg 13%
    06:00 +25°C° 0 mm 1 mps 759 mmHg 12%
    07:00 +27°C° 0 mm 1 mps 759 mmHg 11%
    08:00 +29°C° 0 mm 2 mps 760 mmHg 10%
    09:00 +31°C° 0 mm 2 mps 759 mmHg 8%
    10:00 +35°C° 0 mm 2 mps 759 mmHg 7%
    11:00 +38°C° 0 mm 3 mps 759 mmHg 6%
    12:00 +39°C° 0 mm 2 mps 758 mmHg 6%
    13:00 +40°C° 0 mm 2 mps 757 mmHg 5%
    14:00 +41°C° 0 mm 2 mps 756 mmHg 5%
    15:00 +40°C° 0 mm 1 mps 756 mmHg 6%
    16:00 +39°C° 0 mm 1 mps 756 mmHg 6%
    17:00 +37°C° 0 mm 1 mps 756 mmHg 7%
    18:00 +35°C° 0 mm 1 mps 756 mmHg 8%
    19:00 +33°C° 0 mm 1 mps 757 mmHg 9%
    20:00 +31°C° 0 mm 1 mps 758 mmHg 9%
    21:00 +30°C° 0 mm 1 mps 758 mmHg 10%
    22:00 +29°C° 0 mm 1 mps 758 mmHg 10%
    23:00 +28°C° 0 mm 1 mps 758 mmHg 11%

    19 December, Wednesday

    Time Temperature Precipitation Wind Pressure Humidity
    00:00 +27°C° 0 mm 1 mps 758 mmHg 14%
    01:00 +26°C° 0 mm 1 mps 758 mmHg 18%
    02:00 +25°C° 0 mm 1 mps 757 mmHg 21%
    03:00 +24°C° 0 mm 1 mps 758 mmHg 24%
    04:00 +22°C° 0 mm 0 mps 758 mmHg 28%
    05:00 +21°C° 0 mm 0 mps 758 mmHg 31%
    06:00 +23°C° 0 mm 0 mps 759 mmHg 28%
    07:00 +26°C° 0 mm 1 mps 759 mmHg 26%
    08:00 +28°C° 0 mm 1 mps 760 mmHg 23%
    09:00 +31°C° 0 mm 1 mps 759 mmHg 18%
    10:00 +35°C° 0 mm 2 mps 759 mmHg 13%
    11:00 +38°C° 0 mm 3 mps 759 mmHg 8%
    12:00 +39°C° 0 mm 2 mps 757 mmHg 7%
    13:00 +40°C° 0 mm 2 mps 756 mmHg 6%
    14:00 +41°C° 0 mm 2 mps 755 mmHg 6%
    15:00 +40°C° 0 mm 2 mps 755 mmHg 6%
    16:00 +39°C° 0 mm 1 mps 755 mmHg 7%
    17:00 +37°C° 0 mm 1 mps 755 mmHg 7%
    18:00 +35°C° 0 mm 1 mps 756 mmHg 8%
    19:00 +33°C° 0 mm 1 mps 757 mmHg 8%
    20:00 +31°C° 0 mm 1 mps 757 mmHg 9%
    21:00 +30°C° 0 mm 1 mps 757 mmHg 9%
    22:00 +29°C° 0 mm 1 mps 757 mmHg 10%
    23:00 +28°C° 0 mm 2 mps 758 mmHg 10%

    20 December, Thursday

    Time Temperature Precipitation Wind Pressure Humidity
    00:00 +28°C° 0 mm 1 mps 757 mmHg 11%
    01:00 +27°C° 0 mm 1 mps 757 mmHg 11%
    02:00 +26°C° 0 mm 1 mps 757 mmHg 12%
    03:00 +25°C° 0 mm 1 mps 757 mmHg 13%
    04:00 +25°C° 0 mm 1 mps 757 mmHg 13%
    05:00 +24°C° 0 mm 1 mps 757 mmHg 14%
    06:00 +26°C° 0 mm 1 mps 758 mmHg 13%
    07:00 +27°C° 0 mm 1 mps 758 mmHg 12%
    08:00 +29°C° 0 mm 1 mps 759 mmHg 11%
    09:00 +32°C° 0 mm 1 mps 758 mmHg 10%
    10:00 +36°C° 0 mm 2 mps 758 mmHg 8%
    11:00 +39°C° 0 mm 2 mps 758 mmHg 7%
    12:00 +40°C° 0 mm 2 mps 757 mmHg 6%
    13:00 +41°C° 0 mm 2 mps 756 mmHg 6%
    14:00 +42°C° 0 mm 2 mps 755 mmHg 5%
    15:00 +41°C° 0 mm 2 mps 755 mmHg 6%
    16:00 +40°C° 0 mm 2 mps 755 mmHg 6%
    17:00 +39°C° 0 mm 1 mps 755 mmHg 7%
    18:00 +37°C° 0 mm 2 mps 756 mmHg 8%
    19:00 +35°C° 0 mm 2 mps 756 mmHg 9%
    20:00 +32°C° 0 mm 2 mps 757 mmHg 10%
    21:00 +31°C° 0 mm 2 mps 757 mmHg 10%
    22:00 +30°C° 0 mm 2 mps 757 mmHg 10%
    23:00 +29°C° 0 mm 2 mps 757 mmHg 11%

    21 December, Friday

    Time Temperature Precipitation Wind Pressure Humidity
    00:00 +28°C° 0 mm 2 mps 757 mmHg 13%
    01:00 +27°C° 0 mm 2 mps 757 mmHg 15%
    02:00 +27°C° 0 mm 2 mps 757 mmHg 17%
    03:00 +26°C° 0 mm 1 mps 757 mmHg 23%
    04:00 +25°C° 0 mm 1 mps 757 mmHg 28%
    05:00 +24°C° 0 mm 1 mps 757 mmHg 34%
    06:00 +25°C° 0 mm 1 mps 758 mmHg 31%
    07:00 +27°C° 0 mm 1 mps 758 mmHg 28%
    08:00 +28°C° 0 mm 2 mps 758 mmHg 26%
    09:00 +31°C° 0 mm 2 mps 758 mmHg 20%
    10:00 +35°C° 0 mm 2 mps 758 mmHg 15%
    11:00 +38°C° 0 mm 3 mps 757 mmHg 10%
    12:00 +39°C° 0 mm 3 mps 756 mmHg 9%
    13:00 +40°C° 0 mm 3 mps 756 mmHg 9%
    14:00 +41°C° 0 mm 2 mps 755 mmHg 8%
    15:00 +40°C° 0 mm 2 mps 755 mmHg 9%
    16:00 +40°C° 0 mm 2 mps 755 mmHg 9%
    17:00 +39°C° 0 mm 1 mps 755 mmHg 10%
    18:00 +36°C° 0 mm 1 mps 755 mmHg 11%
    19:00 +34°C° 0 mm 1 mps 756 mmHg 12%
    20:00 +32°C° 0 mm 1 mps 756 mmHg 13%
    21:00 +31°C° 0 mm 1 mps 757 mmHg 13%
    22:00 +30°C° 0 mm 1 mps 757 mmHg 13%
    23:00 +30°C° 0 mm 2 mps 757 mmHg 13%
    Show more